EHI
18 18 21 24 23 19 18 16 14 12 11 9 6 5 3 1 1 1 2 3 3 2 1 0 0 0 0 0 0 0 0 0 0 0 0 0 0 0 0 0 0 0 0
22 24 29 34 32 27 24 22 19 16 15 12 8 5 3 2 2 2 3 3 3 3 1 1 0 0 0 0 0 0 0 0 0 0 0 0 0 0 0 0 0 0 0
31 35 42 47 45 37 33 31 27 23 19 16 11 7 5 4 4 4 3 3 3 3 3 2 1 0 0 0 0 0 0 0 0 0 0 0 0 0 0 0 0 0 0
36 42 49 54 54 47 41 39 35 29 23 19 17 14 9 6 5 5 4 3 3 3 3 4 3 2 0 0 0 0 0 0 0 0 0 0 0 0 0 0 0 0 0
33 41 49 53 54 52 47 42 38 33 27 24 23 20 15 9 6 5 5 4 3 3 3 4 5 3 1 0 0 0 0 0 0 0 0 0 0 0 0 0 0 0 0
30 37 44 48 50 51 48 45 40 34 29 26 26 24 20 14 7 5 5 5 4 3 4 5 6 4 2 1 0 0 0 0 0 0 0 0 0 0 0 0 0 0 0
29 33 39 43 46 48 50 49 43 36 30 28 28 26 22 16 10 5 4 4 3 3 4 6 6 5 3 1 0 0 0 0 0 0 0 0 0 0 0 0 0 0 0
28 30 34 38 41 44 48 50 44 37 32 31 30 28 24 18 12 7 5 4 4 4 4 5 6 5 4 2 0 0 0 0 0 0 0 0 0 0 0 0 0 0 0
28 28 28 32 36 38 41 44 42 38 35 32 30 28 25 20 15 10 7 6 6 5 5 6 6 6 5 3 1 0 0 0 0 0 0 0 0 0 0 0 0 0 0
26 25 24 26 29 30 32 35 38 39 38 33 30 27 24 21 16 12 8 7 6 6 6 6 6 6 5 3 2 1 0 0 0 0 0 0 0 0 0 0 0 0 0
20 20 20 20 22 24 26 29 32 36 38 35 29 25 21 18 15 13 10 7 7 6 6 6 6 6 5 3 2 1 0 0 0 0 0 0 0 0 0 0 0 0 0
17 16 17 17 17 19 23 25 27 31 34 31 25 20 17 15 13 12 10 7 6 6 6 6 5 5 4 3 1 0 0 0 0 0 0 0 0 0 0 0 0 0 0
16 16 16 16 16 17 20 22 24 26 28 25 20 17 16 15 13 10 8 6 5 4 5 5 4 3 3 1 0 1 1 1 1 1 1 1 1 0 0 0 0 0 0
16 16 16 16 16 17 20 21 21 22 22 21 17 15 14 14 13 10 7 5 4 4 4 3 2 2 2 1 0 1 2 2 2 2 2 2 1 1 1 1 0 0 0
15 15 16 16 16 19 21 20 18 17 18 18 17 14 12 11 10 9 6 5 6 6 5 3 2 1 1 0 0 1 1 2 3 3 3 1 1 1 1 1 1 0 0
11 12 13 13 16 20 21 19 14 12 13 15 15 13 11 9 7 6 5 5 6 6 6 5 4 3 2 1 0 0 1 2 3 3 2 1 0 0 0 0 0 0 0
8 10 11 13 16 18 18 15 11 10 11 11 11 10 9 8 7 5 4 5 6 6 5 5 5 4 3 1 0 0 1 2 3 3 2 1 0 1 1 0 0 0 0
7 9 13 16 16 15 14 11 9 9 9 8 8 7 6 5 5 3 3 5 6 5 4 4 4 4 3 1 0 0 0 1 2 3 2 1 1 1 1 0 0 0 0
7 9 14 16 15 14 13 10 7 6 6 6 6 5 3 2 2 2 2 4 5 4 4 4 4 3 2 1 0 0 0 0 1 2 2 1 1 1 1 0 0 0 0
7 8 11 14 14 13 12 9 6 4 3 4 4 3 1 1 1 2 2 2 2 3 3 3 3 3 1 0 0 0 0 0 0 1 2 1 1 0 0 0 0 0 0
5 7 9 11 12 12 10 8 5 3 3 3 3 3 2 2 3 2 1 0 1 2 1 1 1 1 0 0 0 0 0 0 0 1 2 2 0 0 0 0 0 0 0
5 8 10 10 10 9 9 7 4 1 1 3 3 3 3 3 3 3 1 1 2 2 1 1 1 0 0 0 0 0 0 0 0 1 1 1 0 0 0 0 0 0 0
7 10 12 11 9 7 6 4 2 0 1 3 3 3 3 3 3 3 3 3 3 3 2 2 1 0 0 0 0 0 0 0 0 0 0 0 0 0 0 0 0 0 0
7 9 11 10 7 5 3 2 2 2 3 3 3 3 3 3 3 3 3 3 3 3 3 2 1 0 0 0 0 0 0 0 0 0 0 0 0 0 0 0 0 0 0
4 5 8 8 6 4 3 3 3 5 5 4 3 3 3 3 3 2 2 2 2 2 1 1 0 0 0 0 0 0 0 0 0 0 0 0 0 0 0 0 0 0 0
1 3 6 7 5 4 3 4 5 6 6 5 4 3 3 3 2 1 1 1 1 1 0 0 0 0 0 0 0 0 0 0 0 0 0 0 0 0 0 0 0 0 0
Wind_Speed
9 9 10 10 10 9 9 10 9 8 7 4 4 4 3 2 2 3 4 4 4 5 4 3 3 3 3 3 3 2 2 1 1 2 1 2 1 1 1 2 2 3 4
8 9 10 10 11 12 11 11 10 10 9 6 4 3 3 2 2 2 3 4 5 5 5 4 4 4 3 3 3 3 2 1 1 2 1 1 2 2 1 1 2 3 3
12 11 12 12 11 13 13 12 11 10 9 7 4 3 2 2 2 2 2 3 4 5 4 5 4 4 4 3 3 3 4 2 1 1 3 2 2 2 2 1 1 2 2
11 11 12 13 13 13 11 10 11 10 9 8 7 7 6 5 5 4 3 3 4 4 5 4 4 4 4 4 4 4 3 3 2 1 1 1 2 2 1 2 1 2 3
12 13 14 13 11 10 10 9 9 9 9 9 9 8 6 4 3 2 4 4 3 4 5 5 5 4 4 4 4 3 4 3 3 3 2 1 1 1 2 2 2 2 2
10 10 9 9 8 8 9 9 9 9 9 9 9 8 8 6 6 5 5 4 3 3 5 5 5 5 4 4 4 4 4 3 3 3 3 3 2 2 2 2 2 2 2
9 9 9 10 10 10 10 10 11 10 10 10 9 9 8 8 8 7 6 5 4 4 5 5 5 4 4 4 4 4 4 4 4 4 3 3 2 2 3 2 2 2 2
7 9 10 10 10 10 10 10 11 10 10 10 10 8 8 6 5 6 5 6 5 5 5 6 6 6 5 5 4 3 4 3 4 4 4 3 3 3 3 3 3 1 2
7 8 8 9 9 9 10 11 11 10 10 10 9 8 8 7 6 6 5 5 4 4 5 6 6 6 6 5 5 4 4 4 4 4 4 3 2 3 3 3 3 3 2
5 7 7 8 8 8 7 8 9 9 9 8 8 7 7 7 7 6 6 6 5 5 5 6 6 6 5 5 5 4 4 4 4 3 3 3 2 2 2 3 3 3 3
5 6 6 6 7 6 6 7 7 7 7 8 8 7 7 6 6 6 6 6 5 5 6 6 6 6 6 5 5 5 5 5 4 4 4 4 3 2 2 2 3 3 3
3 4 5 6 6 7 7 6 6 7 7 6 6 6 6 6 6 6 6 5 5 5 6 6 6 6 6 6 6 6 6 6 5 5 4 4 3 3 3 3 3 3 4
3 4 5 6 6 6 6 7 6 6 5 5 6 6 6 6 6 6 6 5 5 5 5 5 6 6 6 6 6 7 6 6 6 6 6 5 4 4 3 3 3 3 3
4 4 4 4 4 5 5 6 6 6 6 6 5 6 6 6 5 5 5 5 5 6 6 5 5 5 5 5 6 6 6 6 5 5 6 5 6 6 5 4 4 3 2
4 4 4 3 4 4 4 5 4 5 6 6 5 5 4 4 4 4 4 4 5 5 5 5 4 4 4 5 6 6 6 6 5 5 5 6 7 7 5 4 4 4 3
3 3 4 4 3 3 4 4 4 4 5 5 4 4 4 4 4 4 4 4 4 3 3 4 4 4 4 5 7 6 5 5 5 5 4 4 5 5 6 6 6 5 4
3 3 3 3 3 3 4 4 4 4 5 5 4 4 4 4 4 4 4 4 4 3 3 3 3 3 3 4 5 7 5 4 4 4 3 3 3 3 3 3 3 2 3
3 2 3 3 2 3 4 4 5 5 4 4 3 3 4 3 3 3 3 3 3 3 2 2 2 2 1 2 4 5 4 3 3 3 3 3 2 1 2 2 1 0 0
2 2 3 4 4 5 4 5 5 5 5 4 3 3 3 3 3 3 3 3 3 2 2 2 2 1 0 1 3 4 3 2 2 1 1 2 1 1 3 3 2 0 1
3 3 4 5 5 5 5 6 5 4 3 3 3 3 3 3 3 3 3 2 3 3 3 2 2 1 1 2 2 4 3 3 2 2 2 2 2 2 2 2 2 1 1
5 5 5 5 4 5 6 6 5 3 2 2 3 3 3 3 2 3 3 3 3 4 3 3 2 2 2 3 4 4 3 3 3 2 2 3 5 4 4 2 1 0 1
5 5 5 5 3 4 5 5 4 3 3 4 4 3 3 3 3 3 3 3 4 4 3 3 3 3 3 4 4 5 4 4 4 3 3 3 6 6 5 3 3 3 3
5 4 6 5 4 3 4 4 2 3 4 5 4 4 4 3 3 3 3 3 3 3 3 2 2 2 3 4 5 5 6 6 5 4 6 6 6 6 5 6 6 4 3
4 4 5 5 3 3 3 3 3 4 5 5 4 4 4 4 4 3 3 3 2 2 2 2 2 2 3 3 3 3 4 6 6 5 6 8 8 6 6 6 5 4 4
4 4 4 4 3 3 3 3 3 4 5 5 4 4 4 5 5 5 4 3 3 2 3 2 3 3 2 2 4 4 4 4 5 6 5 5 5 5 5 5 5 4 4
4 4 4 4 3 3 3 3 3 4 5 5 4 4 3 4 4 5 6 10 8 9 8 6 5 4 5 7 9 9 9 9 8 7 6 5 5 4 4 4 4 4 4
Wind_Direction
198 183 183 181 178 176 177 180 179 175 167 169 172 172 185 181 183 194 189 179 178 176 172 176 167 166 175 180 166 145 134 117 113 89 31 359 355 245 240 232 227 230 226
187 189 186 184 184 185 185 185 185 181 181 184 174 161 156 167 177 187 187 184 181 180 184 178 175 175 173 173 170 153 139 140 133 129 103 358 341 331 275 234 230 236 227
196 194 192 192 190 191 190 190 187 184 184 175 149 124 111 107 148 181 191 196 188 186 186 182 177 180 176 184 185 170 163 167 164 151 147 155 233 302 323 295 248 234 227
199 195 195 195 196 196 192 188 183 183 181 173 171 170 177 189 198 186 187 190 188 188 190 184 183 183 185 190 193 182 170 161 172 163 154 168 166 170 306 316 294 257 236
201 197 197 198 196 189 185 185 180 182 180 180 181 182 189 191 174 169 182 192 191 193 192 187 187 189 192 198 193 179 177 176 173 171 161 151 127 146 171 266 298 295 255
202 198 192 184 182 178 178 177 179 186 182 183 185 189 188 182 177 186 192 195 193 199 198 192 194 196 195 197 196 189 186 190 183 178 174 171 171 182 178 213 252 272 282
196 190 183 181 179 179 180 178 181 191 188 188 194 196 193 190 194 194 195 194 198 205 208 200 197 200 201 198 187 187 196 193 188 191 195 194 194 170 171 183 222 255 285
194 188 186 182 181 183 182 181 187 192 190 194 199 198 195 195 201 199 193 199 207 209 201 198 200 200 197 196 186 191 203 194 196 204 198 198 203 189 186 181 175 223 287
187 183 180 177 176 180 185 187 190 193 193 195 194 195 196 196 198 195 195 201 206 205 196 197 200 199 194 192 184 195 201 191 200 207 205 206 210 199 200 192 185 180 225
181 181 179 177 176 177 181 184 190 194 191 191 194 198 198 199 196 190 198 202 204 200 190 195 197 195 192 190 190 196 196 190 202 202 205 213 210 203 198 199 203 199 198
183 181 180 172 168 160 169 183 187 187 186 192 194 193 194 192 190 198 204 203 202 194 197 199 195 197 197 194 194 200 194 198 203 200 200 211 202 200 200 195 198 203 197
175 169 165 157 160 163 169 177 183 185 187 187 183 186 187 185 190 203 208 202 203 201 202 197 197 201 201 197 199 205 200 199 201 202 197 210 200 201 201 198 208 209 207
145 148 153 158 164 166 168 176 183 182 173 171 177 180 183 191 201 205 203 197 200 204 203 199 204 207 203 201 204 204 201 204 206 202 202 207 197 207 209 208 213 212 206
139 147 155 159 161 167 174 175 177 171 163 165 175 184 192 197 199 196 195 196 198 203 205 204 208 208 204 204 205 204 204 206 209 207 207 208 205 209 211 212 213 205 197
129 147 156 156 153 161 171 169 168 164 157 158 174 191 188 178 174 179 187 190 197 204 199 194 199 203 205 211 205 204 205 204 211 214 213 214 213 210 210 212 204 195 197
161 153 141 143 154 165 172 165 165 161 150 157 172 171 165 168 174 182 185 184 186 183 177 187 193 202 219 214 201 197 201 200 206 214 217 217 210 212 216 219 206 193 196
165 158 157 161 164 169 165 172 157 147 151 157 159 160 164 169 173 173 171 176 172 164 169 185 191 210 231 211 195 194 191 196 204 203 201 206 197 189 200 202 191 199 215
155 158 145 128 122 115 120 127 123 125 132 134 140 151 159 162 155 152 162 163 151 155 166 179 193 202 243 205 194 182 178 177 188 192 188 186 187 192 175 166 143 164 258
152 140 127 122 120 118 120 116 114 117 122 130 137 146 148 148 145 152 155 146 141 144 144 140 160 168 305 121 170 160 151 149 153 137 127 147 148 169 152 151 156 129 9
92 95 100 106 115 119 119 116 115 114 122 140 146 139 134 136 141 144 130 118 127 130 120 102 98 104 55 47 129 154 145 137 121 87 75 79 98 88 117 143 152 191 288
86 93 103 105 109 118 116 111 109 117 125 111 106 106 115 122 120 107 103 110 112 108 103 95 72 64 52 61 94 132 136 137 122 101 78 60 73 78 76 88 102 148 82
83 90 96 87 83 100 110 111 117 122 106 102 99 94 98 110 112 112 110 114 121 115 107 93 73 54 56 70 79 95 104 115 112 107 93 76 74 72 67 68 56 56 65
82 84 96 91 79 83 104 113 115 109 104 100 98 94 91 88 96 107 111 107 114 121 118 109 91 64 57 63 72 81 91 99 103 97 92 85 77 71 63 54 53 55 59
83 86 94 97 90 88 100 114 119 115 110 108 105 100 100 92 83 80 83 92 101 116 119 118 110 89 67 62 72 85 92 94 95 92 85 79 72 67 60 51 50 52 53
78 87 96 97 87 80 90 97 108 115 113 110 107 104 102 102 91 82 68 77 65 98 122 118 119 117 98 74 98 108 98 100 101 98 80 67 61 59 53 50 47 45 45
78 78 79 84 75 73 77 82 105 122 122 116 112 109 107 106 107 105 82 60 67 67 73 82 98 87 98 98 93 89 84 84 93 89 78 71 66 63 57 54 49 45 42